Home   Weather   Atlanta   Past weeks
Flag for USA

Past Weather in Atlanta, Georgia, USA — Yesterday and Last 2 Weeks

Now
40 °F

Low clouds.


Feels Like: 33 °F
Forecast: 34 / 44 °F
Wind: 10 mph from Northwest

Location: Fulton County Airport-Brown Field

Current Time: Nov 15, 2018 at 4:04:38 pm

Latest Report: Nov 15, 2018 at 2:53 pm


Visibility: 10 mi

Pressure: 30.06 "Hg

Humidity: 93%

Dew Point: 38 °F

Location of AtlantaLocation

Past Weather in Atlanta — Graph

°F

Atlanta Temperature Yesterday

Maximum temperature yesterday: 50 °F (at 10:00 am)
Minimum temperature yesterday: 43 °F (at 12:53 am)
Average temperature yesterday: 46 °F

High & Low Weather Summary for the Past Weeks

 TemperatureHumidityPressure
High77 °F (Oct 31, 3:53 pm)100% (Oct 31, 11:53 pm)30.37 "Hg (Oct 31, 11:53 pm)
Low31 °F (Nov 11, 1:53 am)41% (Nov 11, 11:53 am)29.69 "Hg (Nov 1, 4:53 pm)
Average53 °F89%30.09 "Hg
* Reported Oct 31 3:53 pm — Nov 15 2:53 pm, Atlanta. Weather by CustomWeather, © 2018

Note: Actual official high and low records may vary slightly from our data, if they occured in-between our weather recording intervals... More about our weather records

Advertising

Atlanta Weather History for the Previous 24 Hours

Scroll right to see more
 ConditionsComfort  
Time TempWeatherWind HumidityBarometerVisibility
2:53 pm
Thu, Nov 15
40 °FLow clouds.10 mph93%30.06 "Hg10 mi
1:53 pm42 °FMostly cloudy.12 mph92%30.04 "Hg10 mi
12:53 pm43 °FLight rain. Fog.10 mph100%30.05 "Hg3 mi
12:01 pm44 °FFog.No wind96%30.07 "Hg3 mi
10:53 am44 °FFog.3 mph93%30.09 "Hg6 mi
10:11 am44 °FOvercast.3 mph89%30.09 "Hg10 mi
9:53 am44 °FMostly cloudy.3 mph93%30.10 "Hg10 mi
9:35 am43 °FMostly cloudy.No wind93%30.09 "Hg10 mi
8:53 am43 °FFog.3 mph97%30.10 "Hg6 mi
7:53 am42 °FMostly cloudy.5 mph96%30.10 "Hg10 mi
7:00 am42 °FFog.6 mph96%30.09 "Hg6 mi
5:58 am41 °FLight rain. Fog.6 mph100%30.11 "Hg3 mi
5:38 am42 °FLight rain. Mostly cloudy.3 mph100%30.10 "Hg8 mi
5:03 am42 °FLight rain. Fog.3 mph100%30.10 "Hg6 mi
4:53 am42 °FLight rain. Fog.No wind100%30.10 "Hg4 mi
3:53 am42 °FRain. Fog.5 mph100%30.11 "Hg6 mi
2:53 am43 °FLight rain. Overcast.10 mph97%30.09 "Hg10 mi
2:27 am43 °FLight rain. Mostly cloudy.12 mph97%30.07 "Hg10 mi
1:53 am43 °FLight rain. Overcast.16 mph97%30.10 "Hg10 mi
12:53 am44 °FRain. Mostly cloudy.13 mph96%30.12 "Hg8 mi
11:53 pm
Wed, Nov 14
44 °FHeavy rain. Fog.18 mph96%30.18 "Hg3 mi
11:20 pm45 °FRain. Fog.No wind97%30.23 "Hg4 mi
10:53 pm45 °FRain. Fog.3 mph100%30.22 "Hg6 mi
10:32 pm45 °FRain. Fog.No wind100%30.22 "Hg5 mi
9:53 pm45 °FLight rain. Fog.5 mph97%30.22 "Hg5 mi
8:53 pm45 °FRain. Fog.7 mph97%30.22 "Hg5 mi
7:53 pm45 °FRain. Fog.8 mph97%30.21 "Hg5 mi
6:53 pm46 °FLight rain. Low clouds.15 mph93%30.19 "Hg8 mi
5:53 pm46 °FLight rain. Low clouds.13 mph93%30.20 "Hg9 mi
5:29 pm46 °FLight rain. Low clouds.10 mph96%30.19 "Hg10 mi
5:22 pm46 °FLight rain. Overcast.10 mph96%30.19 "Hg10 mi
4:53 pm46 °FLight rain. Overcast.14 mph93%30.20 "Hg10 mi
4:32 pm47 °FLight rain. Overcast.10 mph93%30.21 "Hg8 mi
Weather by CustomWeather, © 2018

See weather overview